Simultaneous Nadir Overpasses (SNOs) Predictions

Prediction of SNOs between NOAA-19 and TERRA Satellite Orbit:

Table of predicted SNOs for the next 14.0 days since TLE Epoch: 9/11/2021
Index Date (NOAA-19) Time (NOAA-19) Lat,Lon (NOAA-19) SZA (NOAA-19 ) Date (TERRA) Time (TERRA) Lat,Lon (TERRA) SZA (TERRA ) Distance(km) Time Diff (sec)
1 09/13/2021 08:52:06 -80.43, -98.82 101.48 09/13/2021 08:53:15 -80.43, -98.89 101.46 1.40 69
2 09/13/2021 09:43:07 80.41, 68.86 78.56 09/13/2021 09:42:41 80.43, 68.78 78.56 2.73 26
3 09/15/2021 15:16:12 -80.42, 165.45 100.57 09/15/2021 15:16:23 -80.44, 165.49 100.55 2.79 11
4 09/17/2021 20:49:23 80.44, -98.24 80.29 09/17/2021 20:50:05 80.43, -98.12 80.30 2.95 42
5 09/17/2021 21:40:19 -80.43, 69.37 99.68 09/17/2021 21:39:32 -80.43, 69.53 99.69 3.02 47
6 09/20/2021 03:13:29 80.43, 166.16 81.21 09/20/2021 03:13:13 80.44, 166.19 81.22 1.24 16
7 09/22/2021 08:46:32 -80.43, -97.08 97.91 09/22/2021 08:46:55 -80.45, -97.12 97.89 2.31 23
8 09/22/2021 09:37:34 80.39, 70.86 82.15 09/22/2021 09:36:21 80.44, 70.48 82.13 9.16 73
9 09/24/2021 14:19:43 80.44, -0.40 82.99 09/24/2021 14:20:36 80.45, -0.54 83.00 3.09 53



Historial Predications of SNOs between NOAA-19 and TERRA
